Brisbane Airport Observation History
Time Wind Speed Temp Pressure Rel. Hum Rain
03/05:00am W 7-9 kts 7.2°c 1019.8 hPa 71% 0.0mm
03/04:30am WNW 2-5 kts 7.9°c 1019.6 hPa 65% 0.0mm
03/04:00am WSW 5-6 kts 8.0°c 1019.5 hPa 64% 0.0mm
03/03:30am ENE 3-5 kts 9.0°c 1019.8 hPa 60% 0.0mm
03/03:00am SSW 2-4 kts 9.3°c 1019.7 hPa 57% 0.0mm
03/02:30am WSW 8-11 kts 9.1°c 1019.6 hPa 58% 0.0mm
03/02:00am WSW 9-11 kts 10.2°c 1019.5 hPa 52% 0.0mm
03/01:30am W 7-8 kts 11.3°c 1019.6 hPa 48% 0.0mm
03/01:00am SW 8-9 kts 10.9°c 1020.0 hPa 49% 0.0mm
03/12:30am SSW 6-7 kts 10.9°c 1020.0 hPa 50% 0.0mm
03/12:00am W 5-7 kts 12.4°c 1020.2 hPa 44% 0.0mm
Time Wind Speed Temp Pressure Rel. Hum Rain
02/11:30pm WSW 13-20 kts 13.1°c 1020.1 hPa 39% 0.0mm
02/11:00pm WSW 15-19 kts 13.3°c 1020.2 hPa 38% 0.0mm
02/10:30pm WSW 15-20 kts 13.4°c 1020.3 hPa 37% 0.0mm
02/10:00pm W 15-20 kts 13.4°c 1020.7 hPa 38% 0.0mm
02/09:30pm W 14-18 kts 13.8°c 1020.7 hPa 36% 0.0mm
02/09:00pm W 12-18 kts 14.0°c 1020.6 hPa 36% 0.0mm
02/08:30pm W 11-15 kts 14.2°c 1020.5 hPa 35% 0.0mm
02/08:00pm W 14-17 kts 14.3°c 1020.1 hPa 34% 0.0mm
02/07:30pm W 14-18 kts 13.8°c 1020.0 hPa 36% 0.0mm
02/07:00pm W 13-17 kts 14.3°c 1019.7 hPa 34% 0.0mm
02/06:30pm W 13-16 kts 15.4°c 1019.1 hPa 29% 0.0mm
02/06:00pm WSW 10-14 kts 15.0°c 1018.8 hPa 30% 0.0mm
02/05:30pm WSW 11-15 kts 13.8°c 1018.3 hPa 36% 0.0mm
02/05:00pm WSW 11-16 kts 16.5°c 1018.1 hPa 27% 0.0mm
02/04:30pm WSW 15-21 kts 18.0°c 1017.4 hPa 21% 0.0mm
02/04:00pm W 18-24 kts 18.9°c 1016.9 hPa 19% 0.0mm
02/03:30pm W 17-22 kts 19.4°c 1016.9 hPa 18% 0.0mm
02/03:00pm W 15-20 kts 20.0°c 1016.7 hPa 18% 0.0mm
02/02:30pm W 16-23 kts 19.9°c 1016.5 hPa 16% 0.0mm
02/02:00pm W 19-25 kts 19.9°c 1016.5 hPa 17% 0.0mm
02/01:30pm W 19-22 kts 19.5°c 1017.1 hPa 19% 0.0mm
02/01:00pm W 20-27 kts 19.3°c 1017.2 hPa 20% 0.0mm
02/12:30pm W 19-27 kts 19.1°c 1017.4 hPa 21% 0.0mm
02/12:00pm W 20-29 kts 18.7°c 1018.0 hPa 22% 0.0mm
02/11:56am WSW 19-29 kts 18.4°c 1018.0 hPa 22% 0.0mm
02/11:30am W 23-31 kts 18.9°c 1018.5 hPa 21% 0.0mm
02/11:01am W 23-33 kts 17.9°c 1018.7 hPa 21% 0.0mm
02/11:00am W 24-33 kts 18.1°c 1018.7 hPa 21% 0.0mm
02/10:36am WSW 22-32 kts 17.8°c 1018.8 hPa 23% 0.0mm
02/10:30am WSW 23-32 kts 17.5°c 1018.7 hPa 22% 0.0mm
02/10:00am WSW 22-29 kts 17.0°c 1019.2 hPa 27% 0.0mm
02/09:38am WSW 20-30 kts 16.5°c 1019.2 hPa 29% 0.0mm
02/09:30am WSW 20-26 kts 16.5°c 1019.1 hPa 30% 0.0mm
02/09:00am W 19-25 kts 16.2°c 1018.7 hPa 33% 0.0mm
02/08:30am W 16-22 kts 15.7°c 1018.7 hPa 37% 0.0mm
02/08:00am W 16-21 kts 15.5°c 1018.4 hPa 40% 0.0mm
02/07:30am W 13-19 kts 15.2°c 1018.3 hPa 43% 0.0mm
02/07:00am W 18-23 kts 14.5°c 1017.9 hPa 47% 0.0mm
02/06:30am W 19-25 kts 14.7°c 1017.3 hPa 46% 0.0mm
02/06:00am W 17-21 kts 15.1°c 1016.7 hPa 44% 0.0mm
02/05:30am W 16-21 kts 15.6°c 1016.6 hPa 43% 0.0mm
02/05:00am W 16-20 kts 16.0°c 1016.1 hPa 43% 0.0mm
02/04:30am WNW 13-18 kts 16.1°c 1015.7 hPa 45% 0.0mm
02/04:00am WNW 9-14 kts 16.2°c 1015.4 hPa 45% 0.0mm
02/03:30am WNW 11-14 kts 16.4°c 1015.4 hPa 49% 0.0mm
02/03:00am WNW 13-17 kts 17.3°c 1015.4 hPa 46% 0.0mm
02/02:30am WNW 11-14 kts 17.3°c 1015.0 hPa 54% 0.0mm
02/02:00am W 10-14 kts 16.6°c 1014.9 hPa 81% 0.0mm
02/01:30am W 4-5 kts 16.4°c 1014.6 hPa 91% 0.0mm
02/01:00am NW 7-9 kts 16.3°c 1014.6 hPa 90% 0.0mm
02/12:30am NNW 10-12 kts 17.0°c 1014.5 hPa 91% 0.0mm
02/12:00am N 9-12 kts 17.5°c 1014.6 hPa 90% 0.0mm
Time Wind Speed Temp Pressure Rel. Hum Rain
01/11:30pm N 10-14 kts 17.7°c 1014.8 hPa 89% 0.0mm
01/11:00pm N 12-15 kts 18.0°c 1014.9 hPa 88% 0.0mm
01/10:30pm N 13-16 kts 18.4°c 1015.0 hPa 85% 0.0mm
01/10:00pm N 15-18 kts 18.4°c 1014.9 hPa 85% 0.0mm
01/09:30pm N 12-16 kts 18.4°c 1015.2 hPa 86% 0.0mm
01/09:00pm N 12-16 kts 18.3°c 1015.2 hPa 88% 0.0mm
01/08:30pm N 10-14 kts 18.8°c 1015.3 hPa 83% 0.0mm
01/08:00pm N 10-14 kts 19.1°c 1015.4 hPa 83% 0.0mm
01/07:30pm N 13-18 kts 19.3°c 1015.1 hPa 83% 0.0mm
01/07:00pm N 12-16 kts 19.6°c 1014.9 hPa 83% 0.0mm
01/06:30pm N 11-15 kts 19.7°c 1014.9 hPa 84% 0.0mm
01/06:00pm N 12-15 kts 19.8°c 1014.6 hPa 85% 0.0mm
01/05:30pm NNE 14-18 kts 20.2°c 1014.3 hPa 82% 0.0mm
01/05:00pm NNE 14-17 kts 20.1°c 1014.2 hPa 84% 0.0mm
01/04:30pm NNE 13-17 kts 20.4°c 1014.1 hPa 81% 0.0mm
01/04:00pm NNE 13-17 kts 21.0°c 1013.9 hPa 76% 0.0mm
01/03:30pm NNE 13-16 kts 22.0°c 1014.1 hPa 73% 0.0mm
01/03:00pm NNE 11-15 kts 21.7°c 1014.2 hPa 76% 0.0mm
01/02:30pm NNE 11-14 kts 21.4°c 1014.3 hPa 76% 0.0mm
01/02:00pm NE 10-12 kts 21.7°c 1014.6 hPa 74% 0.0mm
01/01:30pm NNE 8-11 kts 21.6°c 1014.9 hPa 73% 0.0mm
01/01:00pm NNE 9-12 kts 22.4°c 1015.3 hPa 69% 0.0mm
01/12:30pm NE 8-12 kts 21.2°c 1015.6 hPa 74% 0.0mm
01/12:00pm NNE 9-12 kts 22.0°c 1016.1 hPa 69% 0.0mm
01/11:30am NE 7-9 kts 20.9°c 1016.7 hPa 72% 0.0mm
01/11:00am N 6-8 kts 20.8°c 1017.5 hPa 71% 0.0mm
01/10:30am N 5-7 kts 20.6°c 1018.2 hPa 73% 0.0mm
01/10:00am CALM 0-2 kts 18.5°c 1018.6 hPa 83% 0.0mm
01/09:30am SW 4-5 kts 17.6°c 1019.1 hPa 87% 0.0mm
01/09:00am SW 6 kts 17.0°c 1019.3 hPa 91% 0.0mm
01/08:30am SW 4-5 kts 16.1°c 1019.2 hPa 94% 0.0mm
01/08:00am SSW 4-5 kts 15.1°c 1019.0 hPa 97% 0.0mm
01/07:30am CALM 0-3 kts 14.9°c 1019.1 hPa 96% 0.0mm
01/07:00am SSW 3-4 kts 13.9°c 1018.7 hPa 97% 0.0mm
01/06:30am SSW 4-6 kts 13.5°c 1018.8 hPa 97% 0.0mm
01/06:00am SSW 5 kts 14.5°c 1018.4 hPa 97% 0.0mm
01/05:30am SSW 7-8 kts 14.6°c 1018.4 hPa 97% 0.0mm
01/05:00am SSW 6-8 kts 15.0°c 1018.2 hPa 96% 0.0mm
01/04:30am SSW 6-8 kts 14.9°c 1018.1 hPa 97% 0.0mm
01/04:00am SSW 6-8 kts 15.4°c 1018.2 hPa 96% 0.0mm
01/03:30am SSW 7-9 kts 14.9°c 1018.4 hPa 97% 0.0mm
01/03:00am SSW 7-9 kts 14.7°c 1018.5 hPa 97% 0.0mm
01/02:30am SSW 7-9 kts 14.6°c 1018.5 hPa 97% 0.0mm
01/02:00am SW 6-7 kts 14.2°c 1018.6 hPa 99% 0.0mm
01/01:30am SW 5-6 kts 14.2°c 1018.8 hPa 97% 0.0mm
01/01:00am SSW 4-5 kts 14.9°c 1019.0 hPa 97% 0.0mm
01/12:30am SSW 5-6 kts 14.9°c 1019.2 hPa 97% 0.0mm
01/12:00am WSW 4-6 kts 14.6°c 1019.5 hPa 97% 0.0mm